Vorticity
8 7 5 5 5 7 6 1 3 5 6 4 3 3 4 5 6 5 5 2 2 -0 4 5 8 8 6 10 9 11 13 6
6 5 2 5 6 5 -4 -3 2 8 8 6 5 4 4 7 5 5 5 5 -0 1 3 8 3 6 7 8 9 8 8 5
3 4 6 5 2 -1 1 6 6 6 6 6 4 4 5 5 7 6 7 3 2 4 7 3 4 5 5 7 10 8 8 5
2 9 5 6 2 2 6 3 4 9 4 3 3 7 7 6 5 6 9 2 4 5 5 2 4 5 11 6 8 6 7 6
10 9 6 2 6 5 6 4 10 6 3 1 7 7 4 5 8 12 -2 4 5 8 3 4 5 8 10 8 6 7 10 7
9 7 8 7 4 5 8 4 12 2 5 5 5 6 6 7 6 1 6 6 6 3 4 6 5 7 11 5 6 12 11 10
5 2 6 7 6 8 5 6 9 4 3 4 6 9 7 -1 4 5 6 7 3 1 6 6 7 7 2 7 10 11 11 10
7 4 1 4 7 9 9 9 5 2 3 -1 9 8 2 1 6 7 8 6 2 5 8 10 7 7 9 13 9 4 10 15
5 7 8 8 11 9 9 8 6 3 1 4 15 3 3 5 9 8 6 3 5 9 5 7 8 7 12 7 8 10 11 16
3 0 5 5 4 1 7 9 8 11 10 10 8 3 7 8 7 10 6 7 6 1 4 8 9 11 7 6 4 11 16 15
8 4 3 8 5 6 9 9 9 4 7 8 4 5 7 8 9 7 6 3 2 9 8 7 11 8 0 0 9 14 11 15
4 5 1 6 7 2 4 2 2 6 6 3 6 7 7 8 7 7 3 3 3 9 6 13 8 3 3 5 10 11 11 12
1 2 2 3 5 6 5 6 5 6 6 9 7 6 5 5 4 5 2 4 6 9 9 8 3 8 9 6 11 13 13 8
2 -1 2 8 7 6 8 7 13 10 9 9 5 4 3 5 4 3 4 5 12 10 9 1 2 2 1 14 15 10 7 8
4 1 1 7 6 13 10 12 7 9 11 4 1 1 4 10 3 3 6 10 13 12 2 2 4 1 12 17 11 8 10 42
6 3 6 6 5 6 10 10 11 10 1 5 6 10 8 6 8 7 9 12 11 1 2 5 7 13 19 18 8 12 45 59
8 3 6 12 13 19 16 14 9 13 7 9 7 9 8 10 9 10 8 8 6 3 5 8 7 14 17 8 13 41 64 29
6 11 13 6 13 4 18 11 4 3 2 1 3 9 12 11 11 10 7 6 7 4 6 8 18 17 8 21 38 53 43 -11
26 21 17 19 10 8 8 11 -3 8 2 6 8 10 8 8 9 7 5 8 6 9 9 17 16 9 28 43 39 53 18 -6
Height
5832 5832 5832 5832 5833 5833 5832 5831 5830 5828 5826 5824 5821 5818 5816 5812 5809 5805 5802 5799 5797 5794 5790 5786 5782 5779 5776 5769 5766 5764 5760 5756
5828 5828 5828 5828 5828 5827 5827 5826 5824 5823 5821 5818 5815 5811 5807 5805 5802 5797 5794 5792 5789 5785 5780 5776 5771 5766 5762 5758 5753 5748 5745 5742
5824 5824 5824 5824 5823 5822 5821 5819 5818 5815 5813 5809 5809 5804 5801 5798 5793 5790 5786 5783 5780 5775 5771 5764 5760 5754 5747 5742 5739 5736 5733 5729
5820 5820 5820 5819 5819 5817 5815 5812 5811 5809 5805 5803 5801 5797 5793 5789 5785 5781 5779 5776 5771 5764 5757 5753 5746 5739 5735 5731 5727 5723 5719 5716
5814 5814 5814 5813 5812 5810 5809 5807 5804 5800 5796 5795 5793 5789 5783 5780 5775 5772 5768 5764 5759 5752 5746 5739 5732 5725 5723 5719 5714 5709 5705 5701
5807 5806 5805 5804 5803 5801 5799 5796 5793 5790 5786 5784 5782 5776 5772 5769 5766 5761 5757 5750 5745 5739 5731 5725 5720 5716 5711 5706 5702 5696 5692 5687
5798 5798 5797 5795 5793 5791 5787 5785 5784 5782 5778 5775 5771 5768 5764 5759 5755 5750 5744 5739 5732 5726 5719 5714 5707 5702 5699 5694 5688 5683 5679 5673
5789 5787 5786 5784 5782 5781 5780 5779 5777 5774 5771 5766 5760 5756 5753 5748 5743 5738 5731 5725 5718 5712 5708 5702 5697 5691 5686 5680 5673 5668 5661 5655
5781 5780 5778 5777 5776 5774 5772 5770 5767 5765 5759 5755 5751 5747 5741 5736 5730 5725 5718 5712 5706 5701 5696 5688 5681 5675 5668 5661 5654 5649 5644 5640
5772 5771 5769 5768 5766 5764 5763 5760 5756 5751 5749 5745 5740 5734 5730 5724 5719 5714 5707 5700 5694 5687 5680 5674 5667 5659 5650 5644 5639 5632 5628 5622
5762 5762 5759 5757 5756 5754 5750 5745 5743 5738 5734 5730 5726 5721 5716 5711 5706 5701 5693 5687 5681 5673 5665 5657 5650 5643 5636 5627 5620 5615 5610 5606
5751 5749 5748 5747 5743 5740 5738 5734 5730 5727 5722 5716 5712 5709 5704 5698 5691 5685 5679 5671 5665 5656 5649 5643 5635 5625 5617 5610 5604 5597 5592 5587
5741 5739 5738 5735 5732 5728 5723 5720 5716 5711 5708 5705 5700 5694 5688 5683 5677 5670 5664 5657 5649 5641 5635 5625 5616 5610 5602 5594 5587 5579 5572 5566
5728 5727 5726 5723 5719 5715 5712 5707 5703 5700 5696 5690 5684 5679 5672 5667 5661 5655 5648 5640 5633 5626 5616 5609 5601 5593 5587 5578 5569 5562 5554 5546
5715 5712 5709 5706 5703 5699 5695 5692 5688 5684 5680 5675 5669 5663 5659 5653 5645 5639 5633 5625 5618 5611 5603 5595 5589 5581 5570 5561 5552 5544 5533 5524
5702 5699 5696 5692 5689 5685 5682 5678 5674 5670 5666 5661 5655 5650 5644 5637 5631 5623 5617 5610 5603 5596 5589 5581 5571 5563 5553 5544 5535 5525 5512 5508
5688 5685 5683 5679 5676 5672 5669 5666 5661 5657 5652 5646 5642 5637 5629 5622 5614 5608 5602 5595 5588 5581 5572 5563 5553 5544 5537 5527 5516 5503 5496 5498
5674 5671 5668 5664 5660 5658 5655 5651 5647 5643 5638 5632 5626 5620 5613 5606 5600 5593 5585 5580 5574 5565 5555 5545 5536 5527 5518 5508 5496 5488 5487 5490
5659 5655 5652 5648 5646 5642 5639 5635 5631 5628 5622 5617 5611 5605 5598 5591 5585 5578 5571 5565 5558 5549 5540 5530 5520 5510 5500 5489 5481 5479 5481 5485